IBR1349 SBPS-SBSV

Flight info

Callsign IBR1349
Flight time 0h 45m
Altitude 29000
Route NEMO1B NEMOG DCT EDNOB ATEX1A
Aircraft A20N/M-SDE2E3FGHIRWXY/LB1

Departure

Time 2026-05-04 01:55
Airport Porto Seguro International Airport (SBPS)

Arrival

Time 2026-05-04 02:40
Airport Deputado Luiz Eduardo Magalhães International Airport (SBSV)
Time Latitude Longitude Altitude Speed Heading
2026-05-04 01:16 -16.44074 -39.08130 174 ft 0 kts 176°
2026-05-04 01:48 -16.44069 -39.08130 174 ft 2 kts 184°
2026-05-04 01:48 -16.44057 -39.08129 174 ft 2 kts 198°
2026-05-04 01:49 -16.44049 -39.08125 173 ft 0 kts 208°
2026-05-04 01:49 -16.44051 -39.08128 174 ft 1 kts 231°
2026-05-04 01:49 -16.44047 -39.08133 174 ft 1 kts 313°
2026-05-04 01:49 -16.44036 -39.08130 173 ft 5 kts 16°
2026-05-04 01:50 -16.43967 -39.08126 173 ft 14 kts 346°
2026-05-04 01:50 -16.43857 -39.08107 173 ft 21 kts 65°
2026-05-04 01:50 -16.43809 -39.07932 171 ft 29 kts 75°
2026-05-04 01:50 -16.43747 -39.07711 172 ft 35 kts 74°
2026-05-04 01:51 -16.43683 -39.07473 171 ft 37 kts 75°
2026-05-04 01:51 -16.43643 -39.07286 168 ft 11 kts 105°
2026-05-04 01:51 -16.43640 -39.07207 166 ft 5 kts 33°
2026-05-04 01:51 -16.43624 -39.07222 167 ft 5 kts 291°
2026-05-04 01:52 -16.43629 -39.07277 168 ft 11 kts 255°
2026-05-04 01:52 -16.43634 -39.07294 168 ft 0 kts 254°
2026-05-04 01:54 -16.43693 -39.07515 171 ft 68 kts 254°
2026-05-04 01:54 -16.43889 -39.08233 174 ft 136 kts 253°
2026-05-04 01:55 -16.44164 -39.09264 653 ft 147 kts 252°
2026-05-04 01:55 -16.44373 -39.10263 1418 ft 137 kts 269°
2026-05-04 01:55 -16.43956 -39.11105 2130 ft 137 kts 326°
2026-05-04 01:55 -16.43036 -39.11062 2485 ft 154 kts 40°
2026-05-04 01:56 -16.42201 -39.10150 2618 ft 198 kts 45°
2026-05-04 01:56 -16.40807 -39.09618 2875 ft 235 kts 359°
2026-05-04 01:56 -16.39186 -39.10200 3260 ft 264 kts 321°
2026-05-04 01:56 -16.37832 -39.11561 3920 ft 277 kts 316°
2026-05-04 01:57 -16.36240 -39.12732 4781 ft 283 kts 330°
2026-05-04 01:57 -16.34449 -39.13617 5666 ft 287 kts 339°
2026-05-04 01:57 -16.32548 -39.14278 6566 ft 290 kts 345°
2026-05-04 01:57 -16.30586 -39.14800 7443 ft 292 kts 348°
2026-05-04 01:58 -16.28586 -39.15241 8354 ft 294 kts 350°
2026-05-04 01:58 -16.26563 -39.15640 9294 ft 296 kts 351°
2026-05-04 01:58 -16.24526 -39.16015 10196 ft 299 kts 351°
2026-05-04 01:58 -16.22430 -39.16388 10739 ft 315 kts 352°
2026-05-04 01:59 -16.21409 -39.16566 10907 ft 324 kts 352°
2026-05-04 01:59 -16.19358 -39.16920 11199 ft 342 kts 352°
2026-05-04 01:59 -16.16976 -39.17329 11619 ft 355 kts 352°
2026-05-04 02:00 -16.14514 -39.17749 12228 ft 361 kts 352°
2026-05-04 02:00 -16.12020 -39.18175 12875 ft 365 kts 352°
2026-05-04 02:00 -16.09504 -39.18604 13523 ft 368 kts 352°
2026-05-04 02:00 -16.06955 -39.19038 14149 ft 372 kts 352°
2026-05-04 02:01 -16.04389 -39.19474 14704 ft 376 kts 352°
2026-05-04 02:01 -16.01794 -39.19916 15254 ft 380 kts 352°
2026-05-04 02:01 -15.99173 -39.20362 15821 ft 383 kts 352°
2026-05-04 02:01 -15.96522 -39.20812 16386 ft 387 kts 352°
2026-05-04 02:02 -15.93860 -39.21265 16951 ft 390 kts 351°
2026-05-04 02:02 -15.91163 -39.21724 17514 ft 394 kts 351°
2026-05-04 02:02 -15.88480 -39.22180 18038 ft 397 kts 351°
2026-05-04 02:02 -15.85742 -39.22645 18540 ft 400 kts 351°
2026-05-04 02:03 -15.82978 -39.23115 18972 ft 403 kts 351°
2026-05-04 02:03 -15.80203 -39.23586 19421 ft 405 kts 351°
2026-05-04 02:03 -15.77408 -39.24060 19843 ft 407 kts 351°
2026-05-04 02:03 -15.76470 -39.24230 19974 ft 408 kts 349°
2026-05-04 02:04 -15.73925 -39.24780 20344 ft 411 kts 347°
2026-05-04 02:04 -15.71130 -39.25441 20783 ft 413 kts 347°
2026-05-04 02:04 -15.68322 -39.26115 21226 ft 415 kts 347°
2026-05-04 02:04 -15.65501 -39.26790 21703 ft 417 kts 347°
2026-05-04 02:05 -15.62666 -39.27467 22185 ft 419 kts 347°
2026-05-04 02:05 -15.59812 -39.28146 22642 ft 422 kts 346°
2026-05-04 02:05 -15.56938 -39.28829 23105 ft 424 kts 346°
2026-05-04 02:05 -15.54084 -39.29506 23560 ft 427 kts 346°
2026-05-04 02:06 -15.51146 -39.30203 23976 ft 429 kts 346°
2026-05-04 02:06 -15.48263 -39.30887 24355 ft 432 kts 346°
2026-05-04 02:06 -15.45325 -39.31583 24762 ft 434 kts 346°
2026-05-04 02:06 -15.42376 -39.32282 25170 ft 436 kts 346°
2026-05-04 02:07 -15.39406 -39.32985 25579 ft 438 kts 346°
2026-05-04 02:07 -15.36442 -39.33687 25973 ft 440 kts 346°
2026-05-04 02:07 -15.33438 -39.34398 26372 ft 442 kts 346°
2026-05-04 02:07 -15.30435 -39.35110 26762 ft 444 kts 346°
2026-05-04 02:08 -15.27416 -39.35824 27130 ft 446 kts 346°
2026-05-04 02:08 -15.24384 -39.36541 27511 ft 448 kts 346°
2026-05-04 02:08 -15.21323 -39.37264 27866 ft 450 kts 346°
2026-05-04 02:08 -15.18261 -39.37988 28221 ft 453 kts 346°
2026-05-04 02:09 -15.15187 -39.38714 28582 ft 455 kts 346°
2026-05-04 02:09 -15.12090 -39.39446 28921 ft 457 kts 346°
2026-05-04 02:09 -15.08990 -39.40178 29094 ft 454 kts 346°
2026-05-04 02:09 -15.05938 -39.40898 29110 ft 447 kts 346°
2026-05-04 02:10 -14.99944 -39.42313 29113 ft 444 kts 346°
2026-05-04 02:10 -14.93925 -39.43732 29108 ft 444 kts 346°
2026-05-04 02:11 -14.87908 -39.45151 29112 ft 444 kts 346°
2026-05-04 02:11 -14.81865 -39.46574 29110 ft 445 kts 346°
2026-05-04 02:12 -14.75831 -39.47995 29113 ft 445 kts 346°
2026-05-04 02:12 -14.69785 -39.49418 29106 ft 445 kts 346°
2026-05-04 02:13 -14.63742 -39.50839 29104 ft 446 kts 346°
2026-05-04 02:13 -14.57730 -39.52252 29109 ft 446 kts 346°
2026-05-04 02:14 -14.51671 -39.53675 29108 ft 446 kts 346°
2026-05-04 02:14 -14.45629 -39.55094 29109 ft 446 kts 346°
2026-05-04 02:15 -14.39567 -39.56511 29105 ft 446 kts 347°
2026-05-04 02:15 -14.33383 -39.56855 29106 ft 448 kts
2026-05-04 02:16 -14.30359 -39.56109 29102 ft 449 kts 19°
2026-05-04 02:16 -14.27560 -39.54763 29104 ft 450 kts 30°
2026-05-04 02:16 -14.22589 -39.50817 29101 ft 452 kts 39°
2026-05-04 02:17 -14.17787 -39.46635 29097 ft 452 kts 39°
2026-05-04 02:17 -14.12979 -39.42474 29094 ft 451 kts 39°
2026-05-04 02:18 -14.08153 -39.38315 29099 ft 451 kts 39°
2026-05-04 02:18 -14.03331 -39.34168 29097 ft 452 kts 39°
2026-05-04 02:19 -13.98501 -39.30017 29097 ft 452 kts 39°
2026-05-04 02:19 -13.93698 -39.25892 29091 ft 452 kts 39°
2026-05-04 02:20 -13.88875 -39.21752 29092 ft 451 kts 39°
2026-05-04 02:20 -13.84036 -39.17600 29093 ft 456 kts 39°
2026-05-04 02:21 -13.81574 -39.15490 29090 ft 467 kts 39°
2026-05-04 02:21 -13.79050 -39.13327 29082 ft 474 kts 39°
2026-05-04 02:21 -13.73994 -39.08994 29078 ft 469 kts 39°
2026-05-04 02:22 -13.71520 -39.06874 29077 ft 456 kts 39°
2026-05-04 02:22 -13.69082 -39.04816 29079 ft 452 kts 38°
2026-05-04 02:22 -13.64172 -39.00778 28808 ft 452 kts 38°
2026-05-04 02:23 -13.61710 -38.98759 27828 ft 456 kts 38°
2026-05-04 02:23 -13.59211 -38.96709 26944 ft 459 kts 38°
2026-05-04 02:23 -13.56720 -38.94665 26273 ft 456 kts 38°
2026-05-04 02:23 -13.54269 -38.92653 25594 ft 454 kts 39°
2026-05-04 02:24 -13.51803 -38.90630 24900 ft 451 kts 39°
2026-05-04 02:24 -13.49350 -38.88618 24207 ft 449 kts 39°
2026-05-04 02:24 -13.46911 -38.86618 23499 ft 447 kts 39°
2026-05-04 02:24 -13.44493 -38.84635 22705 ft 444 kts 39°
2026-05-04 02:25 -13.42091 -38.82666 21984 ft 439 kts 40°
2026-05-04 02:25 -13.39717 -38.80721 21276 ft 434 kts 40°
2026-05-04 02:25 -13.37389 -38.78813 20576 ft 430 kts 40°
2026-05-04 02:25 -13.35032 -38.76882 19885 ft 426 kts 40°
2026-05-04 02:26 -13.32751 -38.75015 19195 ft 423 kts 40°
2026-05-04 02:26 -13.30467 -38.73143 18503 ft 420 kts 40°
2026-05-04 02:26 -13.28190 -38.71280 17731 ft 416 kts 40°
2026-05-04 02:26 -13.25941 -38.69439 17027 ft 411 kts 40°
2026-05-04 02:27 -13.23714 -38.67618 16349 ft 406 kts 40°
2026-05-04 02:27 -13.21529 -38.65832 15687 ft 400 kts 41°
2026-05-04 02:27 -13.19364 -38.64061 15023 ft 395 kts 41°
2026-05-04 02:27 -13.17219 -38.62308 14368 ft 391 kts 41°
2026-05-04 02:28 -13.15112 -38.60586 13684 ft 387 kts 41°
2026-05-04 02:28 -13.13009 -38.58866 12988 ft 381 kts 41°
2026-05-04 02:28 -13.10952 -38.57186 12362 ft 375 kts 41°
2026-05-04 02:28 -13.08952 -38.55552 11750 ft 369 kts 41°
2026-05-04 02:29 -13.06956 -38.53917 11076 ft 365 kts 42°
2026-05-04 02:29 -13.05194 -38.52070 10462 ft 357 kts 57°
2026-05-04 02:29 -13.04154 -38.49850 10272 ft 335 kts 75°
2026-05-04 02:29 -13.03641 -38.47586 10155 ft 317 kts 81°
2026-05-04 02:30 -13.03263 -38.45444 10021 ft 301 kts 82°
2026-05-04 02:30 -13.02914 -38.43376 9882 ft 287 kts 82°
2026-05-04 02:30 -13.02577 -38.41385 9509 ft 282 kts 82°
2026-05-04 02:30 -13.02241 -38.39420 9121 ft 278 kts 82°
2026-05-04 02:31 -13.01907 -38.37474 8753 ft 276 kts 82°
2026-05-04 02:31 -13.01572 -38.35541 8384 ft 274 kts 82°
2026-05-04 02:31 -13.01239 -38.33625 8026 ft 272 kts 82°
2026-05-04 02:31 -13.01020 -38.32366 7782 ft 271 kts 82°
2026-05-04 02:32 -13.00577 -38.29821 7305 ft 269 kts 82°
2026-05-04 02:32 -13.00349 -38.28568 7130 ft 269 kts 82°
2026-05-04 02:32 -12.99982 -38.26677 6726 ft 272 kts 81°
2026-05-04 02:32 -12.99603 -38.24771 6190 ft 274 kts 81°
2026-05-04 02:33 -12.99097 -38.22246 5592 ft 271 kts 81°
2026-05-04 02:33 -12.98841 -38.20973 5420 ft 265 kts 81°
2026-05-04 02:33 -12.98476 -38.19161 5255 ft 253 kts 81°
2026-05-04 02:33 -12.98131 -38.17454 5089 ft 243 kts 81°
2026-05-04 02:34 -12.97796 -38.15788 4938 ft 232 kts 82°
2026-05-04 02:34 -12.97347 -38.14246 4849 ft 220 kts 69°
2026-05-04 02:34 -12.96488 -38.12988 4688 ft 214 kts 47°
2026-05-04 02:34 -12.95257 -38.12197 4425 ft 208 kts 24°
2026-05-04 02:35 -12.93850 -38.11931 4082 ft 205 kts
2026-05-04 02:35 -12.92473 -38.12081 3878 ft 193 kts 349°
2026-05-04 02:35 -12.91242 -38.12531 3632 ft 185 kts 334°
2026-05-04 02:35 -12.90170 -38.13231 3304 ft 182 kts 320°
2026-05-04 02:36 -12.89290 -38.14141 2990 ft 177 kts 306°
2026-05-04 02:36 -12.88646 -38.15182 2718 ft 169 kts 293°
2026-05-04 02:36 -12.88242 -38.16286 2445 ft 163 kts 280°
2026-05-04 02:36 -12.88060 -38.17409 2178 ft 156 kts 270°
2026-05-04 02:37 -12.88122 -38.18496 1879 ft 151 kts 257°
2026-05-04 02:37 -12.88321 -38.19559 1721 ft 153 kts 253°
2026-05-04 02:37 -12.88538 -38.20629 1731 ft 153 kts 253°
2026-05-04 02:37 -12.88749 -38.21686 1719 ft 151 kts 253°
2026-05-04 02:38 -12.88958 -38.22745 1655 ft 152 kts 254°
2026-05-04 02:38 -12.89168 -38.23809 1462 ft 152 kts 254°
2026-05-04 02:38 -12.89378 -38.24860 1260 ft 152 kts 252°
2026-05-04 02:38 -12.89588 -38.25912 1052 ft 150 kts 252°
2026-05-04 02:39 -12.89796 -38.26951 874 ft 150 kts 254°
2026-05-04 02:39 -12.90002 -38.27983 683 ft 150 kts 255°
2026-05-04 02:39 -12.90212 -38.29038 494 ft 150 kts 256°
2026-05-04 02:39 -12.90421 -38.30063 422 ft 149 kts 253°
2026-05-04 02:40 -12.90612 -38.31123 149 ft 150 kts 256°
2026-05-04 02:40 -12.90821 -38.32097 61 ft 120 kts 258°
2026-05-04 02:40 -12.90955 -38.32733 54 ft 60 kts 258°
2026-05-04 02:40 -12.91025 -38.33078 48 ft 36 kts 257°
2026-05-04 02:41 -12.91077 -38.33331 41 ft 37 kts 258°
2026-05-04 02:41 -12.91133 -38.33446 42 ft 6 kts 166°
2026-05-04 02:41 -12.91171 -38.33411 43 ft 9 kts 120°
2026-05-04 02:41 -12.91187 -38.33381 44 ft 0 kts 118°
2026-05-04 02:42 -12.91195 -38.33366 42 ft 6 kts 119°
2026-05-04 02:42 -12.91245 -38.33320 45 ft 14 kts 164°
2026-05-04 02:43 -12.91309 -38.33358 45 ft 9 kts 199°
2026-05-04 02:43 -12.91356 -38.33359 43 ft 0 kts 175°